{"data":{"norad_id":68488,"epoch":"2026-05-25T04:00:03.998880Z","epoch_age_seconds":63731,"freshness":"FRESH","line1":"1 68488U 26067CA  26145.16671295  .00025534  00000+0  24611-2 0  9994","line2":"2 68488  97.7561 103.7664 0003000  96.3577 226.6372 14.92885784  1306","mean_motion":14.92885784,"eccentricity":0.0003,"inclination_deg":97.7561,"raan_deg":103.7664,"arg_perigee_deg":96.3577,"mean_anomaly_deg":226.6372,"bstar":0.0024611,"rev_number":130,"period_min":96.457479562951,"perigee_km":586.85269876404,"apogee_km":591.03294665766,"semimajor_km":6967.0798227108,"source":"CELESTRAK","updated_at":"2026-05-25T13:38:07.873453Z"}}